This is the latest recevied weather packets stored in our database for station/object KB1JLI. If no packets are shown the sender has not sent any weather packets the latest 1 day(s).
| Time | Temp. | Humidity | Pressure | Rain* | Wind** | Luminosity | Snow |
|---|---|---|---|---|---|---|---|
| 1778027751 | 20.56° C | 55% | 1008.4 hPa | 0 mm | 0.89 m/s, 133° | 0 W/m² | - |
| 1778027448 | 20.56° C | 55% | 1008.4 hPa | 0 mm | 2.68 m/s, 229° | 0 W/m² | - |
| 1778027143 | 20.56° C | 55% | 1008.1 hPa | 0 mm | 0.45 m/s, 170° | 0 W/m² | - |
| 1778026840 | 20.56° C | 54% | 1008.2 hPa | 0 mm | 2.68 m/s, 301° | 0 W/m² | - |
| 1778026536 | 20.56° C | 54% | 1008.1 hPa | 0 mm | 0.89 m/s, 2° | 0 W/m² | - |
| 1778026234 | 21.11° C | 54% | 1007.8 hPa | 0 mm | 0.89 m/s, 213° | 0 W/m² | - |
| 1778025931 | 21.11° C | 53% | 1007.8 hPa | 0 mm | 0.45 m/s, 136° | 0 W/m² | - |
| 1778025628 | 21.11° C | 53% | 1007.9 hPa | 0 mm | 0 m/s | 0 W/m² | - |
| 1778025326 | 21.11° C | 53% | 1007.7 hPa | 0 mm | 0.89 m/s, 330° | 1 W/m² | - |
| 1778025022 | 21.67° C | 53% | 1007.6 hPa | 0 mm | 1.34 m/s, 128° | 2 W/m² | - |
| 1778024720 | 21.67° C | 53% | 1007.3 hPa | 0 mm | 0.89 m/s, 227° | 3 W/m² | - |
| 1778024416 | 21.67° C | 52% | 1007.4 hPa | 0 mm | 2.24 m/s, 140° | 4 W/m² | - |
| 1778024114 | 22.22° C | 52% | 1007.1 hPa | 0 mm | 0.89 m/s, 13° | 6 W/m² | - |
| 1778023811 | 22.22° C | 50% | 1007.2 hPa | 0 mm | 0.45 m/s, 164° | 9 W/m² | - |
| 1778023509 | 22.78° C | 50% | 1007 hPa | 0 mm | 0 m/s | 12 W/m² | - |
| 1778023206 | 22.78° C | 50% | 1007 hPa | 0 mm | 0.89 m/s, 208° | 15 W/m² | - |
| 1778022903 | 22.78° C | 50% | 1007.1 hPa | 0 mm | 3.13 m/s, 242° | 17 W/m² | - |
| 1778022602 | 22.78° C | 50% | 1007 hPa | 0 mm | 2.24 m/s, 209° | 22 W/m² | - |
| 1778022299 | 22.78° C | 50% | 1006.8 hPa | 0 mm | 0.89 m/s, 358° | 27 W/m² | - |
| 1778021995 | 22.78° C | 50% | 1006.8 hPa | 0 mm | 1.34 m/s, 176° | 32 W/m² | - |
| 1778021692 | 23.33° C | 49% | 1006.8 hPa | 0 mm | 1.79 m/s, 189° | 36 W/m² | - |
| 1778021388 | 23.33° C | 49% | 1006.7 hPa | 0 mm | 0.89 m/s, 197° | 38 W/m² | - |
| 1778021085 | 23.33° C | 48% | 1006.6 hPa | 0 mm | 4.47 m/s, 212° | 44 W/m² | - |
| 1778020782 | 23.33° C | 48% | 1006.5 hPa | 0 mm | 1.79 m/s, 203° | 52 W/m² | - |
| 1778020479 | 23.89° C | 48% | 1006.3 hPa | 0 mm | 3.58 m/s, 196° | 57 W/m² | - |
* Rain latest hour (hover to see other rain measurements)
** Current wind speed in m/s (hover to see current wind gust speed)